Location: Brescia
(45.5500°N, 10.2500°E)
Time: 10:22:46
(UTC+02:00)

ISS - Visible Passes

Search period start: 08 May 2021 00:00
Search period end: 18 May 2021 00:00
Orbit: 418 x 421 km, 51.6° (Epoch: 08 May)

Date Brightness Start Highest point End Pass type
(mag) Time Alt. Az. Time Alt. Az. Time Alt. Az.
08 May -2.4 02:49:24 40° N 02:49:24 40° N 02:52:13 10° NE visible
08 May -1.8 04:23:21 10° WNW 04:26:19 28° N 04:29:18 10° ENE visible
09 May -1.4 02:03:26 22° NE 02:03:26 22° NE 02:04:49 10° ENE visible
09 May -1.8 03:36:23 14° WNW 03:38:44 28° N 03:41:43 10° ENE visible
09 May -2.3 05:12:53 10° NW 05:16:06 39° NNE 05:19:19 10° E visible
10 May -2.0 02:50:22 27° NW 02:51:09 30° N 02:54:12 10° NE visible
10 May -2.0 04:25:27 10° NW 04:28:34 33° NNE 04:31:39 10° ENE visible
11 May -1.8 02:04:21 30° NNE 02:04:21 30° NNE 02:06:43 10° NE visible
11 May -1.8 03:37:58 10° NW 03:41:00 29° N 03:44:00 10° ENE visible
11 May -3.4 05:14:48 10° WNW 05:18:10 72° NNE 05:21:34 10° ESE visible
12 May -1.2 01:18:16 18° NE 01:18:16 18° NE 01:19:18 10° NE visible
12 May -1.7 02:51:12 15° NW 02:53:24 28° N 02:56:22 10° ENE visible
12 May -2.8 04:27:23 10° NW 04:30:42 51° NNE 04:34:00 10° E visible
13 May -1.7 02:05:02 25° NNW 02:05:49 28° N 02:08:47 10° ENE visible
13 May -2.3 03:39:58 10° NW 03:43:11 39° NNE 03:46:24 10° E visible
13 May -3.5 05:16:48 10° WNW 05:20:04 48° SW 05:23:20 10° SE visible
14 May -1.7 01:18:38 29° N 01:18:38 29° N 01:21:16 10° NE visible
14 May -2.0 02:52:31 10° NW 02:55:38 33° NNE 02:58:44 10° ENE visible
14 May -3.9 04:29:18 10° WNW 04:32:41 76° SSW 04:36:02 10° SE visible
14 May -1.7 21:16:49 10° SE 21:17:25 10° SE 21:18:01 10° ESE visible
14 May -3.9 22:50:19 10° SW 22:53:39 67° SSE 22:55:40 22° ENE visible
15 May -2.1 00:27:32 10° W 00:30:39 34° NNW 00:33:47 10° NE visible
15 May -1.7 02:05:03 10° NW 02:08:03 29° N 02:11:04 10° ENE visible
15 May -3.6 03:41:51 10° WNW 03:45:15 72° NNE 03:48:36 10° ESE visible
15 May -3.4 22:03:05 10° SW 22:06:17 42° SE 22:09:29 10° ENE visible
15 May -2.5 23:39:53 10° W 23:43:07 42° NNW 23:46:21 10° NE visible
16 May -1.6 01:17:30 10° WNW 01:20:28 28° N 01:23:26 10° ENE visible
16 May -2.9 02:54:27 10° NW 02:57:46 51° NNE 03:01:04 10° E visible
16 May -3.0 04:31:27 10° WNW 04:34:28 30° SW 04:37:28 10° SSE visible
16 May -2.7 21:16:05 10° SSW 21:18:57 26° SE 21:21:50 10° E visible
16 May -3.1 22:52:17 10° WSW 22:55:36 56° NNW 22:58:56 10° ENE visible
17 May -1.6 00:29:54 10° WNW 00:32:52 28° N 00:35:51 10° ENE visible
17 May -2.4 02:07:02 10° NW 02:10:14 39° NNE 02:13:27 10° E visible
17 May -3.6 03:43:51 10° WNW 03:47:07 48° SW 03:50:23 10° SE visible
17 May -3.7 22:04:46 10° WSW 22:08:07 80° NNW 22:11:31 10° ENE visible
17 May -1.8 23:42:15 10° WNW 23:45:16 30° N 23:48:18 10° NE visible
